Location: Bukovany
(49.8234°N, 14.6297°E)
Time: 17:52:00
(UTC+00:00)

Cosmos 1908 Rocket - Pass Details

Date: 17 November 2025
Orbit: 599 x 625 km, 82.5° (Epoch: 09 December)

Event Time Altitude Azimuth Distance (km) Brightness Sun altitude
Rises 15:45:47 0° 188° (S) 2,891 7.5 -5.2°
Reaches altitude 10° 15:47:59 10° 189° (S) 1,991 6.6 -5.5°
Maximum altitude 15:52:25 90° 278° (W) 633 3.6 -6.2°
Drops below altitude 10° 15:56:54 10° 10° (N) 2,012 5.9 -6.9°
Sets 15:59:08 0° 11° (N) 2,923 6.7 -7.2°
